Regional Weather Roundup
Issued by NWS Wakefield, VA

Home | Current Version | Previous Version | Graphics & Text | Print | Product List | Glossary On
Versions: 1 2 3 4 5 6 7 8 9 10 11 12 13 14 15 16 17 18 19 20 21 22 23 24 25 26 27 28 29 30 31 32 33 34 35 36 37 38 39 40 41 42 43 44 45 46 47 48 49 50
258
ASUS41 KAKQ 210615
RWRAKQ

REGIONAL WEATHER ROUNDUP
NATIONAL WEATHER SERVICE WAKEFIELD VA
200 AM EDT SAT APR 21 2018

Note: "fair" indicates few or no clouds below 12,000 feet with no
significant weather and/or obstructions to visibility. * = Denotes
station may not report precipitation (e.g., rain,snow,etc.),
thunder or fog.

VAZ042-051-052>054-056-210700-
NORTHERN VIRGINIA

CITY           SKY/WX    TMP DP  RH WIND       PRES   REMARKS
WASH NATIONAL  FAIR      47  29  49 NE10      30.44R
DULLES         FAIR      44  28  53 NE8       30.42R
FORT BELVOIR   FAIR      46  28  49 CALM      30.43R
QUANTICO       FAIR      49  31  49 N12       30.43R
FREDERICKSBRG* FAIR      41  33  73 CALM      30.40S
STAFFORD*      FAIR      37  29  73 NW7       30.44S
WARRENTON      FAIR      32  27  80 CALM      30.41S
CULPEPER*      FAIR      36  27  72 CALM      30.42S
MANASSAS*      FAIR      34  29  82 CALM      30.42R
LEESBURG*      FAIR      45  32  61 NE5       30.44R
WINCHESTER     FAIR      34  25  69 CALM      30.43R
FRONT ROYAL*   FAIR      41  23  48 CALM      30.40S
LURAY*         FAIR      36  30  80 CALM      30.41S
$$

VAZ048-049-060>072-079>083-210700-
CENTRAL AND SOUTH CENTRAL VIRGINIA

CITY           SKY/WX    TMP DP  RH WIND       PRES   REMARKS
RICHMOND       FAIR      43  31  62 CALM      30.39S
CHESTERFIELD*  FAIR      36  29  75 NW3       30.40
PETERSBURG*    FAIR      33  30  90 SW3       30.41R
HANOVER        FAIR      40  30  67 CALM      30.40S
TAPPAHANNOCK*  FAIR      35  32  90 CALM      30.39S
QUINTON*       FAIR      37  32  82 MISG      30.39S
CHARLOTTSVILLE FAIR      46  24  42 N6        30.39R
GORDONSVILLE*  FAIR      40  29  63 CALM      30.40S
ORANGE*        FAIR      43  27  52 CALM      30.41R
LOUISA*        FAIR      45  24  43 NE5       30.43S
BUMPASS*       FAIR      47  24  41 CALM      30.39S
FARMVILLE*     FAIR      41  30  66 CALM      30.39S
CREWE*         FAIR      39  30  69 CALM      30.39S
FORT PICKETT*  FAIR      40  29  62 CALM      30.40R
CHASE CITY*    FAIR      47  26  43 NE3       30.40R
CLARKSVILLE*   FAIR      46  30  53 NE7       30.38R
SOUTH HILL*    FAIR      42  31  65 CALM      30.44S
LAWRENCEVILLE* FAIR      42  32  67 CALM      30.39R
EMPORIA*       FAIR      37  34  87 CALM      30.41R
$$

VAZ088>098-210700-
SOUTHEAST VIRGINIA

CITY           SKY/WX    TMP DP  RH WIND       PRES   REMARKS
NORFOLK        FAIR      42  35  76 SW5       30.37F
VIRGINIA BEACH FAIR      40  36  86 SW5       30.36F
NORFOLK NAVAL  FAIR      41  35  79 CALM      30.38F
WEST POINT*    FAIR      35  33  92 CALM      30.40S
SALUDA*        FAIR      37  37  99 SW5       30.38S
NEWPORT NEWS   FAIR      40  36  86 CALM      30.38S
LANGLEY AFB    FAIR      44  38  79 SW3       30.37F
FORT EUSTIS    FAIR      44  37  79 CALM      30.36S
WILLIAMSBURG*  FAIR      41  37  87 CALM      30.39S
HR EXEC AP*    FAIR      32  31  96 W3        30.39S
FRANKLIN*      FAIR      37  34  87 CALM      30.40S
US460-WAKEFLD  FAIR      37  34  89 CALM      30.39S
$$

VAZ020-022-025-037-045-210700-
WEST CENTRAL AND SOUTHWEST VIRGINIA

CITY           SKY/WX    TMP DP  RH WIND       PRES   REMARKS
STAUNTON*      FAIR      33  26  75 CALM      30.42S
WAYNESBORO*    FAIR      37  25  60 CALM      30.40S
HOT SPRINGS VA FAIR      38  13  36 NW6       30.37S
LYNCHBURG      FAIR      43  24  47 CALM      30.40R
DANVILLE       FAIR      38  32  79 E5        30.38R
SOUTH BOSTON*  FAIR      36  34  93 CALM      30.39R
MARTINSVILLE   FAIR      35  28  75 NW3       30.41R
ROANOKE        CLEAR     45  21  39 CALM      30.41S
BLACKSBURG     FAIR      37  23  57 CALM      30.41S
DUBLIN*        FAIR      46  18  33 CALM      30.40F
MARION*        FAIR      35  27  73 CALM      30.41S
HILLSVILLE*    FAIR      42  16  35 NE3       30.37S
RICHLANDS*     FAIR      43  16  33 E5        30.38S
WISE*          FAIR      43  19  39 CALM      30.38S
ABINGDON*      FAIR      46  19  35 E6        30.36S
$$

MDZ021>025-VAZ099-100-210700-
SOUTHERN MARYLAND AND THE DELMARVA PENINSULA

CITY           SKY/WX    TMP DP  RH WIND       PRES   REMARKS
PATUXENT RIVER FAIR      47  32  56 NE13      30.41R
BAY BRIDGE APT FAIR      45  27  49 NE6       30.43S
LEONARDTOWN    FAIR      45  32  61 NE5       30.43R
DOVER          FAIR      37  27  66 N6        30.41S
GEORGETOWN     FAIR      42  29  59 CALM      30.42R
EASTON         FAIR      40  28  62 NE5       30.47R
CAMBRIDGE      CLEAR     43  27  52 NE7       30.42S
SALISBURY      FAIR      35  31  85 CALM      30.41R
TANGIER        NOT AVBL
OCEAN CITY     FAIR      44  29  55 N8        30.41R
WALLOPS ISLAND FAIR      38  36  92 NW5       30.40S
ACCOMACK*      FAIR      36  33  90 E3        30.39S
$$

NCZ012>017-030>032-210700-
NORTH CENTRAL AND EASTERN NORTH CAROLINA

CITY           SKY/WX    TMP DP  RH WIND       PRES   REMARKS
ROANOKE RAPIDS FAIR      37  36  93 CALM      30.39R
RALEIGH        FAIR      41  32  70 CALM      30.36S
ELIZABETH CITY FAIR      44  40  85 S5        30.38F
AHOSKIE*       FAIR      41  39  93 CALM      30.39F
EDENTON*       FAIR      43  39  86 CALM      30.38F
CURRITUCK*     NOT AVBL
KILL DEVIL HLS FAIR      44  36  72 CALM      30.36F
MANTEO         FAIR      38  35  90 CALM      30.37F
CAPE HATTERAS  FAIR      48  36  63 NE6       30.37F
TARBORO*       NOT AVBL
GOLDSBORO      FAIR      42  33  72 CALM      30.34S
WASHINGTON     FAIR      44  41  89 CALM      30.38S
GREENVILLE     FAIR      45  41  87 CALM      30.37S
NEW BERN       FAIR      41  39  93 CALM      30.37F
WILMINGTON     FAIR      43  40  89 CALM      30.36F
$$

VAZ048-210700-
ELSEWHERE

CITY           SKY/WX    TMP DP  RH WIND       PRES   REMARKS
HARRISBURG PA  FAIR      38  28  67 N6        30.42R
BALTIMORE      FAIR      42  26  53 NE6       30.43R
ANNAPOLIS      FAIR      48  30  49 E5        30.43R
ANDREWS AFB    FAIR      43  27  53 NE6       30.42R
PHILADELPHIA   FAIR      39  24  55 N5        30.42S
GREENSBORO     FAIR      48  25  40 N7        30.36R
ROCKY MOUNT    FAIR      37  34  89 CALM      30.36S
$$

VAZ100-210700-
MARINE

STATION/POSITION TIME  TEMP    WIND        PRES    WAVE   SWELL
                       AIR SEA DIR/SP/G            HT/PER HT/PER
                 (UTC) (F)     (DEG/KT/KT) (MB)    (FT/S) (FT/S)
BRANDYWINE LGT   0542   45      20/ 16/ 20 1030.1R
CAPE MAY NJ      0548   43 49   20/  3/  9 1029.3R
LEWES DE         0542   46 50   10/ 16/ 20 1029.9R
15NM E FENWICK I 0550   44 46  360/ 17/ 21 1029.3R   3/ 4
OCEAN-CITY-INLET 0548   46 49   30/  7/ 12 1030.1R
WACHAPREAGUE VA  0548   42 54  360/  4/  4 1028.9S
THOMAS POINT MD  0600   46 50   40/ 17/ 20 1031.2R
GOOSES REEF MD   0600   48      80/ 16/ 17 1030.6
COVE POINT MD    0548   46      60/ 14/ 18 1030.6R
SOLOMONS ISLAND  0548   47 53   50/ 10/ 12 1029.8R
BISHOPS HEAD MD  0548   47 52   50/  9/ 13 1029.9R
PINEY POINT MD   0548           70/  9/ 11   N/A
POTOMAC MD       0600   50 51   60/ 16/ 19 1030.6
CAMBRIDGE MD     0548   46 53              1030.9R
LEWISETTA VA     0548   50 54   40/  8/ 12 1029.1R
RAPPAHANNOCK LGT 0548          220/  3/  3 1029.0F
YORK RVR RNG VA  0548   50     240/  6/  7 1029.0F
YORKTOWN VA      0548          220/  3/  3 1028.2F
DOMINION TERM VA 0548   49     200/  5/  6 1028.9F
KIPTOPEKE VA     0542      53  230/  6/  8   N/A
CAPE HENRY VA    0548   47     220/  7/  8   N/A
WILLOUBY STN VA  0548   49     170/  3/  4 1028.4F
S CRANEY ISL VA  0548   48     190/  5/  6 1028.4F
CAPE HENRY BUOY  0530      50                N/A     2/14
64NM E OF VA BCH 0550   48 48  270/  4/  6 1028.6F   3/ 7   3/ 7
DUCK PIER NC     0548   48 52  170/  5/  6 1027.9F
44100 DUCK FRF   0545      50                N/A     3/ 7   2/14
44056 DUCK FRF   0600      51                N/A     2/ 7
OREGON INLET NC  0542   47 56  140/  2/  3 1028.4F
HATTERAS NC      0548           70/  4/  5 1028.1F
DIAMOND SHLS NC  0600   56 69   30/ 14/ 16 1028.1
CAPE LOOKOUT NC  0600           60/  8/ 10 1028.2F
$$




USA.gov is the U.S. government's official web portal to all federal, state and local government web resources and services.